Regional Weather Roundup
Issued by NWS

Home | Current Version | Previous Version | Graphics & Text | Print | Product List | Glossary On
Versions: 1 2 3 4 5 6 7 8 9 10 11 12 13 14 15 16 17 18 19 20 21 22 23 24 25 26 27 28 29 30 31 32 33 34 35 36 37 38 39 40 41 42 43 44 45 46 47 48 49 50
000
ASUS43 KIND 281259
RWRIN

WEATHER ROUNDUP FOR INDIANA
NATIONAL WEATHER SERVICE INDIANAPOLIS IN
900 AM EDT THU MAY 28 2015

NOTE: "FAIR" INDICATES FEW OR NO CLOUDS BELOW 12,000 FEET WITH NO
SIGNIFICANT WEATHER AND/OR OBSTRUCTIONS TO VISIBILITY.

* - STATION DOES NOT REPORT WEATHER SUCH AS PRECIPITATION OR FOG.

+ - STATION NOT QUALITY CONTROLLED BY THE NATIONAL WEATHER SERVICE.
    USE DATA WITH CAUTION...ESPECIALLY DEWPOINT AND RELATIVE
    HUMIDITY OBSERVATIONS.

INZ001>003-010>013-019-020-281400-
NORTHWEST INDIANA

CITY           SKY/WX    TMP DP  RH WIND       PRES   REMARKS
GARY /AIRPORT/ SUNNY     66  57  72 SE6       30.21F
RENSSELAER +   SUNNY     64  59  82 E9        30.21S

$$

LMZ046-743>745-281400-
SOUTHERN LAKE MICHIGAN

STATION/POSITION TIME  TEMP    WIND        PRES    WAVE
                       AIR SEA DIR/SP/G            HT
                 (UTC) (F)     (DEG/KT/KT) (MB)    (FT)
BURNS HARBOR     1200   63     190/  7/ 12 1023.4S
MICHIGAN CITY    1200   62     140/  7/  8   N/A
5NW MICH CITY    1200   56 53  230/  4/  8   N/A     0

$$

INZ004-005-014>016-021>024-281400-
NORTH CENTRAL INDIANA

CITY           SKY/WX    TMP DP  RH WIND       PRES   REMARKS
ELKHART        SUNNY     63  59  88 E3        30.22S
GOSHEN         SUNNY     64  59  83 S6        30.23R
SOUTH BEND     SUNNY     64  58  80 S6        30.23R

$$

INZ006>009-017-018-025>027-281400-
NORTHEAST INDIANA

CITY           SKY/WX    TMP DP  RH WIND       PRES   REMARKS
ANGOLA *+      SUNNY     64  55  72 E6        30.23R
FORT WAYNE     MOSUNNY   64  58  80 E5        30.24R

$$

INZ028-029-035-036-043>045-051>053-281400-
WEST CENTRAL INDIANA

CITY           SKY/WX    TMP DP  RH WIND       PRES   REMARKS
CRAWFORDSVL +  SUNNY     64  52  66 E6        30.21S
GREENCASTLE +  MOSUNNY   66  54  63 NE5       30.21S
LAFAYETTE      SUNNY     64  58  80 E6        30.21R
TERRE HAUTE    SUNNY     69  57  65 E7        30.20R

$$

INZ030>032-037>040-046>048-054>057-064-065-281400-
CENTRAL INDIANA

CITY           SKY/WX    TMP DP  RH WIND       PRES   REMARKS
ANDERSON       SUNNY     64  57  77 E6        30.23
COLUMBUS       CLOUDY    64  63  94 CALM      30.20R FOG
GREENWOOD *+   MOSUNNY   66  55  68 NE9       30.21S
INDIANAPOLIS   MOSUNNY   67  56  67 NE6       30.19S
-EAGLE CREEK   SUNNY     66  57  72 NE5       30.20S
KOKOMO *+      SUNNY     63  57  82 E9        30.23S
MT COMFORT *+  SUNNY     66  52  59 NE8       30.22R
SHELBYVILLE    MOSUNNY   69  59  70 NE8       30.20R

$$

INZ033-034-041-042-049-050-058-059-281400-
EAST CENTRAL INDIANA

CITY           SKY/WX    TMP DP  RH WIND       PRES   REMARKS
MUNCIE         SUNNY     66  59  78 E9        30.23R

$$

INZ060-061-067>069-081>083-085>088-281400-
SOUTHWEST INDIANA

CITY           SKY/WX    TMP DP  RH WIND       PRES   REMARKS
EVANSVILLE     MOSUNNY   68  66  93 S5        30.19R FOG
HUNTINGBURG *+ CLOUDY    66  64  94 S5        30.20R VSB 1/4

$$

INZ062-063-066-070>080-084-089>092-281400-
SOUTH CENTRAL AND SOUTHEAST INDIANA

CITY           SKY/WX    TMP DP  RH WIND       PRES   REMARKS
BLOOMINGTON    MOSUNNY   70  63  78 NE3       30.20R
MADISON *+     CLOUDY    64  63  94 CALM      30.23S
SEYMOUR +      CLOUDY    68  64  88 SE3       30.20R FOG

$$




USA.gov is the U.S. government's official web portal to all federal, state and local government web resources and services.